Weather History for Fitchburg, MA

Change the Weather History Date:

Saturday, November 9, 2013

  Actual Average (KORH) Record (KORH)
Temperature  
Mean Temperature 36 °F 43 °F  
Max Temperature 45 °F 50 °F 71 °F (1945)
Min Temperature 26 °F 35 °F 15 °F (1971)
Degree Days  
Heating Degree Days 30 22  
Month to date heating degree days 191  
Since 1 July heating degree days 852  
Cooling Degree Days 0 0  
Month to date cooling degree days 0  
Year to date cooling degree days 471  
Moisture  
Dew Point 22 °F    
Average Humidity 55    
Maximum Humidity 75    
Minimum Humidity 35    
Precipitation  
Precipitation 0.00 in 0.14 in 1.24 in (1926)
Month to date precipitation 1.27  
Year to date precipitation 41.24  
Sea Level Pressure  
Sea Level Pressure 30.15 in    
Wind  
Wind Speed 3 mph (WSW)    
Max Wind Speed 13 mph    
Max Gust Speed 23 mph    
Visibility 10 miles    
Events      
T = Trace of Precipitation, MM = Missing Value Source: NWS Daily Summary

Daily Weather History Graph

Daily Weather History Graph

Search for Another Location

Airport:

Trip Planner

Search our weather history database for the weather conditions in past years. The results will help you decide how hot, cold, wet, or windy it might be!

Date:

Astronomy

Nov. 09, 2013 Rise Set
Actual Time 6:31 AM EST 4:30 PM EST
Civil Twilight 6:01 AM EST 5:00 PM EST
Nautical Twilight 5:27 AM EST 5:33 PM EST
Astronomical Twilight 4:54 AM EST 6:06 PM EST
Moon 12:04 PM EST (11/9) 10:58 PM EST (11/9)
Length of Visible Light 10h 58m
Length of Day
9h 59m
Waxing Crescent, 44% of the Moon is Illuminated
Nov 9
Waxing Crescent
Nov 10
First Quarter
Nov 17
Full
Nov 25
Last Quarter
Dec 2
New

Hourly Weather History & Observations

Time (EST) Temp. Windchill Dew Point Humidity Pressure Visibility Wind Dir Wind Speed Gust Speed Precip Events Conditions
12:52 AM 28.0 °F - 21.0 °F 75% 30.12 in 10.0 mi Calm Calm - N/A   Partly Cloudy
1:52 AM 30.0 °F - 21.0 °F 69% 30.15 in 10.0 mi Calm Calm - N/A   Scattered Clouds
2:52 AM 32.0 °F - 19.0 °F 59% 30.15 in 10.0 mi Calm Calm - N/A   Partly Cloudy
3:52 AM 26.1 °F - 19.0 °F 75% 30.17 in 10.0 mi Calm Calm - N/A   Clear
4:52 AM 30.0 °F 25.2 °F 19.9 °F 66% 30.18 in 10.0 mi WNW 4.6 mph - N/A   Clear
5:52 AM 30.0 °F 26.5 °F 19.9 °F 66% 30.19 in 10.0 mi NE 3.5 mph - N/A   Clear
6:52 AM 26.1 °F - 19.0 °F 75% 30.22 in 10.0 mi Calm Calm - N/A   Clear
7:52 AM 35.1 °F - 21.0 °F 57% 30.23 in 10.0 mi Calm Calm - N/A   Clear
8:52 AM 37.9 °F 32.1 °F 21.0 °F 51% 30.23 in 10.0 mi WNW 8.1 mph - N/A   Clear
9:52 AM 41.0 °F 34.7 °F 19.9 °F 43% 30.22 in 10.0 mi WNW 10.4 mph - N/A   Clear
10:52 AM 43.0 °F 36.8 °F 19.0 °F 38% 30.20 in 10.0 mi NW 11.5 mph 18.4 mph N/A   Clear
11:52 AM 44.1 °F 37.7 °F 18.0 °F 35% 30.17 in 10.0 mi NW 12.7 mph 23.0 mph N/A   Clear
12:52 PM 42.1 °F 36.6 °F 19.9 °F 41% 30.16 in 10.0 mi West 9.2 mph - N/A   Partly Cloudy
1:52 PM 43.0 °F 38.2 °F 19.9 °F 40% 30.14 in 10.0 mi West 8.1 mph - N/A   Partly Cloudy
2:52 PM 45.0 °F 39.7 °F 19.9 °F 37% 30.13 in 10.0 mi West 10.4 mph 17.3 mph N/A   Clear
3:52 PM 43.0 °F 38.2 °F 21.0 °F 42% 30.12 in 10.0 mi West 8.1 mph - N/A   Clear
4:52 PM 42.1 °F 40.2 °F 23.0 °F 47% 30.12 in 10.0 mi WSW 3.5 mph - N/A   Mostly Cloudy
5:52 PM 41.0 °F 39.0 °F 24.1 °F 51% 30.13 in 10.0 mi SSW 3.5 mph - N/A   Mostly Cloudy
6:52 PM 39.9 °F 36.7 °F 25.0 °F 55% 30.12 in 10.0 mi SW 4.6 mph - N/A   Overcast
7:52 PM 41.0 °F 38.0 °F 26.1 °F 55% 30.11 in 10.0 mi SE 4.6 mph - N/A   Overcast
8:52 PM 39.9 °F 36.7 °F 26.1 °F 58% 30.11 in 10.0 mi SSE 4.6 mph - N/A   Overcast
9:52 PM 39.9 °F - 27.0 °F 60% 30.10 in 10.0 mi Calm Calm - N/A   Overcast
10:52 PM 39.9 °F 36.7 °F 27.0 °F 60% 30.06 in 10.0 mi South 4.6 mph - N/A   Overcast
11:52 PM 39.0 °F 36.8 °F 27.0 °F 62% 30.04 in 10.0 mi SSE 3.5 mph - N/A   Overcast